EW9372 Weather Reports


Display with metric or nautical units.
time (UTC)temp
F
wind
direction
speed
MPH
gust
MPH
rain 1hr
in
rain 24hr
in
rain mn
in
humidity
%
barometer
mb
20260507023859 71 56 0.0 0.0 0.00 0.00 0.00 62 1015.8
20260507023359 71 56 0.0 0.0 0.00 0.00 0.00 63 1015.8
20260507022845 71 55 0.0 0.0 0.00 0.00 0.00 62 1015.8
20260507022343 72 56 0.0 0.0 0.00 0.00 0.00 61 1015.7
20260507020919 73 55 0.0 2.0 0.00 0.00 0.00 60 1015.8
20260507020421 73 56 0.0 2.0 0.00 0.00 0.00 59 1015.8
20260507015920 73 56 0.0 3.0 0.00 0.00 0.00 59 1015.9
20260507015413 73 56 0.0 3.0 0.00 0.00 0.00 59 1015.9
20260507014904 73 28 0.0 1.0 0.00 0.00 0.00 59 1015.7
20260507014859 73 26 0.0 2.0 0.00 0.00 0.00 58 1015.8
20260507013844 73 26 0.0 2.0 0.00 0.00 0.00 58 1015.9
20260507013342 73 26 1.0 3.0 0.00 0.00 0.00 58 1015.9
20260507012834 73 27 0.0 3.0 0.00 0.00 0.00 58 1015.9
20260507012321 73 69 0.0 0.0 0.00 0.00 0.00 59 1016.0
20260507011807 73 69 0.0 1.0 0.00 0.00 0.00 58 1015.9
20260507011802 73 69 0.0 1.0 0.00 0.00 0.00 57 1015.9
20260507010804 73 69 0.0 1.0 0.00 0.00 0.00 58 1016.0
20260507010257 73 69 1.0 1.0 0.00 0.00 0.00 59 1016.0
20260507004753 73 74 0.0 0.0 0.00 0.00 0.00 58 1016.0
20260507003505 74 76 2.0 5.0 0.00 0.00 0.00 58 1016.1
20260507003007 74 61 2.0 2.0 0.00 0.00 0.00 58 1016.2
20260507002128 75 57 2.0 7.0 0.00 0.00 0.00 57 1016.4
20260507001112 75 74 1.0 5.0 0.00 0.00 0.00 57 1016.3
20260507000615 74 36 0.0 5.0 0.00 0.00 0.00 58 1016.3
20260507000114 74 97 1.0 5.0 0.00 0.00 0.00 56 1016.4
20260506235612 75 46 2.0 5.0 0.00 0.00 0.00 56 1016.4
20260506235108 75 30 1.0 5.0 0.00 0.00 0.00 56 1016.4
20260506234604 74 42 1.0 5.0 0.00 0.00 0.00 57 1016.4
20260506234550 74 163 1.0 5.0 0.00 0.00 0.00 56 1016.3
20260506233530 74 67 1.0 6.0 0.00 0.00 0.00 56 1016.3
20260506233026 74 43 2.0 6.0 0.00 0.00 0.00 57 1016.3
20260506232513 74 13 1.0 6.0 0.00 0.00 0.00 58 1016.3
20260506232010 73 115 2.0 7.0 0.00 0.00 0.00 57 1016.4
20260506231510 73 18 3.0 9.0 0.00 0.00 0.00 58 1016.6
20260506231001 73 70 3.0 9.0 0.00 0.00 0.00 57 1016.6
20260506230505 74 54 2.0 6.0 0.00 0.00 0.00 56 1016.7
20260506225953 74 51 2.0 6.0 0.00 0.00 0.00 57 1016.7
20260506225456 74 5 2.0 5.0 0.00 0.00 0.00 57 1016.8
20260506224948 73 28 2.0 5.0 0.00 0.00 0.00 58 1016.9
20260506224450 72 24 2.0 7.0 0.00 0.00 0.00 58 1016.9
20260506223950 72 76 3.0 7.0 0.00 0.00 0.00 58 1017.0
20260506223449 74 58 3.0 4.0 0.00 0.00 0.00 57 1017.1
20260506222321 73 67 2.0 7.0 0.00 0.00 0.00 57 1017.3
20260506221820 73 284 2.0 7.0 0.00 0.00 0.00 59 1017.4
20260506221329 71 49 1.0 6.0 0.00 0.00 0.00 61 1017.3
20260506220830 71 150 2.0 9.0 0.00 0.00 0.00 60 1017.3
20260506220824 72 70 2.0 9.0 0.00 0.00 0.00 58 1017.6
20260506215803 72 64 1.0 4.0 0.00 0.00 0.00 61 1017.6
20260506215310 71 55 2.0 0.0 0.00 0.00 0.00 60 1017.6
20260506214127 71 49 4.0 7.0 0.00 0.00 0.00 61 1017.9
20260506213627 71 40 4.0 10.0 0.00 0.00 0.00 61 1017.9
20260506213127 70 29 3.0 10.0 0.00 0.00 0.00 61 1017.9
20260506212626 70 69 3.0 8.0 0.00 0.00 0.00 62 1017.9
20260506212126 70 50 3.0 10.0 0.00 0.00 0.00 64 1017.9
20260506211623 70 31 3.0 10.0 0.00 0.00 0.00 64 1017.9
20260506211123 70 32 3.0 10.0 0.00 0.00 0.00 64 1018.0
20260506210623 70 53 3.0 10.0 0.00 0.00 0.00 62 1018.1
20260506210129 69 80 2.0 7.0 0.00 0.00 0.00 63 1018.2
20260506210125 69 67 2.0 7.0 0.00 0.00 0.00 63 1018.2
20260506205120 69 61 4.0 9.0 0.00 0.00 0.00 63 1018.2
20260506204621 69 24 1.0 7.0 0.00 0.00 0.00 63 1018.3
20260506204616 69 41 3.0 9.0 0.00 0.00 0.00 62 1018.4
20260506204352 69 76 1.0 3.0 0.00 0.00 0.00 61 1018.4
20260506203116 69 25 1.0 1.0 0.00 0.00 0.00 61 1018.4
20260506202157 69 73 2.0 5.0 0.00 0.00 0.00 62 1018.6
20260506201157 69 39 2.0 5.0 0.00 0.00 0.00 62 1018.6
20260506200700 69 38 2.0 6.0 0.00 0.00 0.00 63 1018.6
20260506200144 69 53 2.0 6.0 0.00 0.00 0.00 62 1018.6
20260506195643 69 27 2.0 6.0 0.00 0.00 0.00 62 1018.6
20260506195144 69 49 0.0 3.0 0.00 0.00 0.00 62 1018.5
20260506194636 68 326 1.0 4.0 0.00 0.00 0.00 63 1018.7
20260506194120 69 0 2.0 4.0 0.00 0.00 0.00 62 1018.8
20260506193616 68 247 2.0 5.0 0.00 0.00 0.00 63 1018.9
20260506193111 69 0 1.0 5.0 0.00 0.00 0.00 63 1019.1
20260506192613 69 52 1.0 4.0 0.00 0.00 0.00 62 1018.9
20260506192608 69 244 1.0 4.0 0.00 0.00 0.00 64 1019.2
20260506191605 68 30 2.0 5.0 0.00 0.00 0.00 64 1019.2
20260506191102 68 48 2.0 7.0 0.00 0.00 0.00 63 1019.3
20260506190553 69 57 2.0 7.0 0.00 0.00 0.00 64 1019.3
20260506190052 68 38 2.0 1.0 0.00 0.00 0.00 64 1019.4
20260506184834 68 48 1.0 5.0 0.00 0.00 0.00 65 1019.3
20260506184333 67 64 2.0 6.0 0.00 0.00 0.00 66 1019.4
20260506183830 68 46 2.0 6.0 0.00 0.00 0.00 66 1019.4
20260506183322 68 27 2.0 5.0 0.00 0.00 0.00 66 1019.5
20260506182831 66 36 1.0 3.0 0.00 0.00 0.00 68 1019.4
20260506182823 67 17 1.0 3.0 0.00 0.00 0.00 68 1019.4
20260506182326 66 40 0.0 3.0 0.00 0.00 0.00 69 1019.3
20260506181316 66 319 0.0 2.0 0.00 0.00 0.00 68 1019.4
20260506181310 66 43 1.0 3.0 0.00 0.00 0.00 69 1019.4
20260506180308 65 17 1.0 3.0 0.00 0.00 0.00 69 1019.4
20260506175808 65 17 1.0 5.0 0.00 0.00 0.00 69 1019.4
20260506175306 65 235 1.0 5.0 0.00 0.00 0.00 69 1019.4
20260506174808 65 31 0.0 0.0 0.00 0.00 0.00 71 1019.3
20260506174304 64 32 0.0 0.0 0.00 0.00 0.00 71 1019.2
20260506173805 64 224 0.0 0.0 0.00 0.00 0.00 71 1019.3
20260506173800 64 221 0.0 0.0 0.00 0.00 0.00 71 1019.4
20260506173252 64 221 0.0 0.0 0.00 0.00 0.00 71 1019.2
20260506172246 63 219 0.0 0.0 0.00 0.00 0.00 73 1019.3
20260506171746 63 219 0.0 0.0 0.00 0.00 0.00 73 1019.3
20260506170441 62 214 0.0 0.0 0.00 0.00 0.00 74 1019.3
20260506170424 62 231 0.0 0.0 0.00 0.00 0.00 76 1019.4
20260506165423 62 229 0.0 0.0 0.00 0.00 0.00 75 1019.1
20260506164923 61 229 0.0 0.0 0.00 0.00 0.00 75 1019.2
20260506164423 61 230 0.0 0.0 0.00 0.00 0.00 75 1019.1
20260506164417 61 231 0.0 0.0 0.00 0.00 0.00 76 1019.1
20260506163412 61 231 0.0 0.0 0.00 0.00 0.00 77 1019.2
20260506162825 61 231 0.0 0.0 0.00 0.00 0.00 77 1019.1
20260506162302 60 242 0.0 0.0 0.00 0.00 0.00 77 1019.1
20260506161752 60 232 0.0 0.0 0.00 0.00 0.00 77 1019.1
20260506161728 60 232 0.0 0.0 0.00 0.00 0.00 78 1019.1
20260506160725 60 231 0.0 0.0 0.00 0.00 0.00 78 1019.1
20260506160224 60 231 0.0 0.0 0.00 0.00 0.00 79 1019.1
20260506155724 60 230 0.0 0.0 0.00 0.00 0.00 79 1018.9
20260506155212 60 229 0.0 0.0 0.00 0.00 0.00 79 1018.9
20260506154706 59 229 0.0 0.0 0.00 0.00 0.00 80 1018.9
20260506154646 59 207 0.0 0.0 0.00 0.00 0.00 80 1018.9
20260506154352 59 227 0.0 0.0 0.00 0.00 0.00 80 1018.9
20260506153852 59 219 0.0 0.0 0.00 0.00 0.00 80 1018.9
20260506152640 59 205 0.0 0.0 0.00 0.00 0.00 81 1018.8
20260506152630 59 207 0.0 0.0 0.00 0.00 0.00 81 1018.7
20260506152125 59 206 0.0 0.0 0.00 0.00 0.00 81 1018.8
20260506151124 58 206 0.0 0.0 0.00 0.00 0.00 81 1018.7
20260506151116 58 186 0.0 0.0 0.00 0.00 0.00 82 1018.7
20260506150824 58 205 0.0 0.0 0.00 0.00 0.00 82 1018.7
20260506150323 58 186 0.0 0.0 0.00 0.00 0.00 82 1018.7
20260506145825 58 198 0.0 0.0 0.00 0.00 0.00 82 1018.7
20260506145112 58 198 0.0 0.0 0.00 0.00 0.00 82 1018.7
20260506144106 58 197 0.0 0.0 0.00 0.00 0.00 83 1018.8
20260506143536 57 196 0.0 0.0 0.00 0.00 0.00 83 1018.7
20260506143029 57 196 0.0 0.0 0.00 0.00 0.00 83 1018.7
20260506142520 57 197 0.0 0.0 0.00 0.00 0.00 83 1018.7
20260506142017 57 196 0.0 0.0 0.00 0.00 0.00 83 1018.6
20260506141504 57 195 0.0 0.0 0.00 0.00 0.00 83 1018.5
20260506140952 57 190 0.0 0.0 0.00 0.00 0.00 84 1018.5
20260506140448 57 185 0.0 0.0 0.00 0.00 0.00 84 1018.5
20260506135943 57 196 0.0 0.0 0.00 0.00 0.00 84 1018.5
20260506135933 57 204 0.0 0.0 0.00 0.00 0.00 84 1018.4
20260506134916 57 190 0.0 0.0 0.00 0.00 0.00 84 1018.4
20260506134412 57 194 0.0 0.0 0.00 0.00 0.00 84 1018.3
20260506133904 57 202 0.0 0.0 0.00 0.00 0.00 84 1018.2
20260506133340 57 178 0.0 0.0 0.00 0.00 0.00 84 1018.2
20260506133307 57 198 0.0 0.0 0.00 0.00 0.00 84 1018.2
20260506132253 57 195 0.0 0.0 0.00 0.00 0.00 84 1018.1
20260506131751 57 198 0.0 0.0 0.00 0.00 0.00 83 1018.1
20260506131233 57 187 0.0 0.0 0.00 0.00 0.00 83 1018.1
20260506125620 57 208 0.0 0.0 0.00 0.00 0.00 83 1018.2
20260506125108 57 207 0.0 0.0 0.00 0.00 0.00 83 1018.0
20260506124601 57 192 0.0 0.0 0.00 0.00 0.00 83 1018.0
20260506124043 57 195 0.0 0.0 0.00 0.00 0.00 83 1017.9
20260506123537 57 197 0.0 0.0 0.00 0.00 0.00 83 1017.9
20260506123038 57 200 0.0 0.0 0.00 0.00 0.00 83 1017.9
20260506121419 57 200 0.0 0.0 0.00 0.00 0.00 82 1017.9
20260506120908 57 195 0.0 0.0 0.00 0.00 0.00 82 1017.7
20260506120406 57 200 0.0 0.0 0.00 0.00 0.00 82 1017.7
20260506115845 57 184 0.0 0.0 0.00 0.00 0.00 82 1017.7
20260506115017 57 196 0.0 0.0 0.00 0.00 0.00 82 1017.7
20260506114017 57 185 0.0 0.0 0.00 0.00 0.00 83 1017.7
20260506114012 57 200 0.0 0.0 0.00 0.00 0.00 82 1017.7
20260506113509 57 202 0.0 0.0 0.00 0.00 0.00 83 1017.7
20260506112447 57 202 0.0 0.0 0.00 0.00 0.00 83 1017.6
20260506111320 57 194 0.0 0.0 0.00 0.00 0.00 82 1017.6
20260506110820 57 205 0.0 0.0 0.00 0.00 0.00 82 1017.5
20260506110804 57 201 0.0 0.0 0.00 0.00 0.00 82 1017.3
20260506105801 57 189 0.0 0.0 0.00 0.00 0.00 82 1017.3
20260506105254 57 188 0.0 0.0 0.00 0.00 0.00 82 1017.3
20260506104730 57 188 0.0 0.0 0.00 0.00 0.00 82 1017.3
20260506104224 57 196 0.0 0.0 0.00 0.00 0.00 82 1017.3
20260506103724 57 173 0.0 0.0 0.00 0.00 0.00 82 1017.3
20260506103222 57 175 0.0 0.0 0.00 0.00 0.00 82 1017.2
20260506102724 57 197 0.0 0.0 0.00 0.00 0.00 83 1017.3
20260506102220 57 198 0.0 0.0 0.00 0.00 0.00 83 1017.1
20260506101718 57 178 0.0 0.0 0.00 0.00 0.00 83 1017.1
20260506101220 57 202 0.0 0.0 0.00 0.00 0.00 83 1017.1
20260506100734 58 198 0.0 0.0 0.00 0.00 0.00 83 1016.9
20260506095230 58 192 0.0 0.0 0.00 0.00 0.00 83 1017.0
20260506093713 58 198 0.0 0.0 0.00 0.00 0.00 83 1017.0
20260506093208 58 184 0.0 0.0 0.00 0.00 0.00 82 1017.1
20260506093204 58 200 0.0 0.0 0.00 0.00 0.00 82 1017.0
20260506092158 58 185 0.0 0.0 0.00 0.00 0.00 82 1017.1
20260506091652 58 189 0.0 0.0 0.00 0.00 0.00 82 1017.1
20260506091147 58 203 0.0 0.0 0.00 0.00 0.00 82 1017.1
20260506090628 58 188 0.0 0.0 0.00 0.00 0.00 82 1017.2
20260506090124 58 190 0.0 0.0 0.00 0.00 0.00 82 1017.1
20260506085622 58 196 0.0 0.0 0.00 0.00 0.00 82 1017.3
20260506085101 58 196 0.0 0.0 0.00 0.00 0.00 82 1017.2
20260506084523 58 192 0.0 0.0 0.00 0.00 0.00 82 1017.1
20260506084019 58 182 0.0 0.0 0.00 0.00 0.00 82 1017.2
20260506083518 58 200 0.0 3.0 0.00 0.00 0.00 82 1017.2
20260506083018 58 196 1.0 3.0 0.00 0.00 0.00 82 1017.3
20260506082457 58 204 1.0 2.0 0.00 0.00 0.00 82 1017.2
20260506081954 58 215 0.0 2.0 0.00 0.00 0.00 82 1017.2
20260506081453 59 219 0.0 2.0 0.00 0.00 0.00 82 1017.2
20260506080953 59 245 0.0 2.0 0.00 0.00 0.00 82 1017.1
20260506080925 59 245 0.0 1.0 0.00 0.00 0.00 82 1017.0
20260506080633 59 245 0.0 2.0 0.00 0.00 0.00 82 1017.1
20260506080147 59 245 0.0 1.0 0.00 0.00 0.00 81 1017.1
20260506072740 59 245 0.0 0.0 0.00 0.00 0.00 80 1016.9
20260506072246 59 245 0.0 0.0 0.00 0.00 0.00 80 1016.8
20260506071742 59 245 0.0 0.0 0.00 0.00 0.00 80 1016.7
20260506071228 59 245 0.0 2.0 0.00 0.00 0.00 80 1016.7
20260506071224 59 245 0.0 1.0 0.00 0.00 0.00 80 1016.7
20260506070200 59 245 0.0 2.0 0.00 0.00 0.00 80 1016.7
20260506062319 60 245 1.0 5.0 0.00 0.00 0.00 79 1016.5
20260506061046 60 235 2.0 0.0 0.00 0.00 0.00 79 1016.4
20260506050720 61 191 0.0 1.0 0.00 0.00 0.00 77 1015.7
20260506050222 61 191 0.0 1.0 0.00 0.00 0.00 77 1015.7
20260506044636 61 204 0.0 2.0 0.00 0.00 0.00 77 1015.6
20260506044120 61 204 0.0 2.0 0.00 0.00 0.00 76 1015.6
20260506043617 61 198 0.0 2.0 0.00 0.00 0.00 76 1015.5
20260506043113 61 181 0.0 1.0 0.00 0.00 0.00 76 1015.5
20260506042548 61 182 0.0 1.0 0.00 0.00 0.00 76 1015.3
20260506042044 61 184 0.0 2.0 0.00 0.00 0.00 76 1015.3
20260506041523 61 185 0.0 2.0 0.00 0.00 0.00 76 1015.1
20260506041024 61 206 0.0 1.0 0.00 0.00 0.00 76 1015.1
20260506040524 61 206 0.0 1.0 0.00 0.00 0.00 76 1015.0
20260506040519 61 212 0.0 3.0 0.00 0.00 0.00 76 1015.0
20260506035459 61 213 1.0 3.0 0.00 0.00 0.00 76 1014.9
20260506035000 61 172 1.0 0.0 0.00 0.00 0.00 76 1014.8
20260506034125 62 178 1.0 4.0 0.00 0.00 0.00 75 1014.9
20260506033131 62 165 1.0 4.0 0.00 0.00 0.00 74 1014.8
20260506033124 62 161 1.0 4.0 0.00 0.00 0.00 75 1014.9
20260506032626 62 168 1.0 4.0 0.00 0.00 0.00 75 1014.8
20260506031625 62 184 1.0 4.0 0.00 0.00 0.00 74 1014.7
20260506031126 62 167 1.0 4.0 0.00 0.00 0.00 74 1014.7
20260506030620 62 184 1.0 3.0 0.00 0.00 0.00 74 1014.6
20260506030120 62 200 1.0 4.0 0.00 0.00 0.00 73 1014.7
20260506025622 62 186 1.0 4.0 0.00 0.00 0.00 73 1014.5
20260506025617 62 184 1.0 4.0 0.00 0.00 0.00 73 1014.6
20260506024620 63 190 1.0 4.0 0.00 0.00 0.00 72 1014.3